This is the latest recevied weather packets stored in our database for station/object VK4SSH. If no packets are shown the sender has not sent any weather packets the latest 10 day(s).
| Time | Temp. | Humidity | Pressure | Rain* | Wind** | Luminosity | Snow |
|---|---|---|---|---|---|---|---|
| 1777878929 | 22.78° C | 84% | - | 0 mm | - | - | - |
| 1777878329 | 22.78° C | 83% | - | 0 mm | - | - | - |
| 1777877729 | 23.33° C | 82% | - | 0 mm | - | - | - |
| 1777877129 | 23.89° C | 80% | - | 0 mm | - | - | - |
| 1777876529 | 23.89° C | 79% | - | 0 mm | - | - | - |
| 1777875929 | 25° C | 77% | - | 0 mm | - | - | - |
| 1777875329 | 25° C | 74% | - | 0 mm | - | - | - |
| 1777874729 | 25° C | 75% | - | 0 mm | - | - | - |
| 1777874129 | 25.56° C | 73% | - | 0 mm | - | - | - |
| 1777873529 | 25.56° C | 72% | - | 0 mm | - | - | - |
| 1777872929 | 25.56° C | 71% | - | 0 mm | - | - | - |
| 1777872329 | 25.56° C | 72% | - | 0 mm | - | - | - |
| 1777871729 | 26.11° C | 72% | - | 0 mm | - | - | - |
| 1777871129 | 26.11° C | 71% | - | 0 mm | - | - | - |
| 1777870529 | 26.67° C | 67% | - | 0 mm | - | - | - |
| 1777869929 | 26.11° C | 66% | - | 0 mm | - | - | - |
| 1777869329 | 26.11° C | 68% | - | 0 mm | - | - | - |
| 1777868729 | 25.56° C | 67% | - | 0 mm | - | - | - |
| 1777868129 | 25.56° C | 68% | - | 0 mm | - | - | - |
| 1777867529 | 25.56° C | 69% | - | 0 mm | - | - | - |
| 1777866929 | 25.56° C | 68% | - | 0 mm | - | - | - |
| 1777866329 | 25.56° C | 68% | - | 0 mm | - | - | - |
| 1777865729 | 25.56° C | 68% | - | 0 mm | - | - | - |
| 1777865129 | 25.56° C | 69% | - | 0 mm | - | - | - |
| 1777864529 | 25.56° C | 72% | - | 0 mm | - | - | - |
* Rain latest hour (hover to see other rain measurements)
** Current wind speed in m/s (hover to see current wind gust speed)